Johnstown, NE

3:48 AM CST on December 06, 2016 (GMT -0600)
Ainsworth Municipal

Weather History for KANW - June, 2013

Change the Weather History Date:

Sunday, June 16, 2013

  Actual Average Record
Temperature  
Mean Temperature 62 °F -  
Max Temperature 72 °F 74 °F 89 °F (2014)
Min Temperature 52 °F 52 °F 44 °F (1999)
Degree Days  
Heating Degree Days 4    
Growing Degree Days 12 (Base 50)    
Moisture  
Dew Point 53 °F    
Average Humidity 73    
Maximum Humidity 92    
Minimum Humidity 48    
Precipitation  
Precipitation 0.05 in - - ()
Sea Level Pressure  
Sea Level Pressure 30.04 in    
Wind  
Wind Speed 5 mph (SE)    
Max Wind Speed 24 mph    
Max Gust Speed 37 mph    
Visibility 10 miles    
Events Rain , Thunderstorm    
Averages and records for this station are not official NWS values.
T = Trace of Precipitation, MM = Missing Value Source: NWS Daily Summary

Daily Weather History Graph

Daily Weather History Graph

Search for Another Location

Airport or City:

Trip Planner

Search our weather history database for the weather conditions in past years. The results will help you decide how hot, cold, wet, or windy it might be!

Date:

Astronomy

Jun. 16, 2013 Rise Set
Actual Time 6:01 AM CDT 9:19 PM CDT
Civil Twilight 5:26 AM CDT 9:54 PM CDT
Nautical Twilight 4:41 AM CDT 10:40 PM CDT
Astronomical Twilight 3:46 AM CDT 11:35 PM CDT
Moon 1:49 PM CDT (6/16) 1:16 AM CDT (6/16)
Length of Visible Light 16h 28m
Length of Day
15h 18m
Waxing Crescent, 50% of the Moon is Illuminated
Jun 16
Waxing Crescent
Jun 16
First Quarter
Jun 23
Full
Jun 29
Last Quarter
Jul 8
New

Hourly Weather History & Observations

Time (CDT) Temp. Dew Point Humidity Pressure Visibility Wind Dir Wind Speed Gust Speed Precip Events Conditions
12:15 AM 61.7 °F 51.8 °F 70% 30.04 in 10.0 mi Calm Calm - N/A   Clear
12:35 AM 60.3 °F 51.8 °F 74% 30.03 in 10.0 mi Calm Calm - N/A   Clear
12:55 AM 61.5 °F 51.3 °F 69% 30.03 in 10.0 mi Calm Calm - N/A   Clear
1:15 AM 58.3 °F 51.4 °F 78% 30.02 in 10.0 mi Calm Calm - N/A   Clear
1:35 AM 56.3 °F 50.7 °F 82% 30.03 in 10.0 mi Calm Calm - N/A   Clear
1:55 AM 55.9 °F 51.4 °F 85% 30.03 in 10.0 mi SSE 3.5 mph - N/A   Clear
2:15 AM 56.5 °F 51.4 °F 83% 30.04 in 10.0 mi SE 5.8 mph - N/A   Clear
2:35 AM 54.7 °F 50.4 °F 85% 30.04 in 10.0 mi SE 3.5 mph - N/A   Clear
2:55 AM 57.4 °F 49.8 °F 76% 30.04 in 10.0 mi SE 4.6 mph - N/A   Clear
3:15 AM 53.6 °F 48.6 °F 83% 30.04 in 10.0 mi SSE 5.8 mph - N/A   Clear
3:35 AM 53.8 °F 48.6 °F 82% 30.03 in 10.0 mi SSE 5.8 mph - N/A   Clear
3:55 AM 53.4 °F 47.5 °F 80% 30.03 in 10.0 mi SSE 5.8 mph - N/A   Clear
4:15 AM 53.6 °F 48.6 °F 83% 30.03 in 10.0 mi SSE 4.6 mph - N/A   Clear
4:35 AM 52.9 °F 48.7 °F 86% 30.03 in 10.0 mi SSE 5.8 mph - N/A   Clear
4:55 AM 53.2 °F 48.2 °F 83% 30.04 in 10.0 mi SSE 4.6 mph - N/A   Clear
5:15 AM 54.3 °F 49.1 °F 83% 30.04 in 10.0 mi SSE 4.6 mph - N/A   Clear
5:35 AM 53.4 °F 49.8 °F 88% 30.04 in 10.0 mi South 6.9 mph - N/A   Clear
5:55 AM 54.0 °F 51.6 °F 92% 30.04 in 10.0 mi South 4.6 mph - N/A   Clear
6:15 AM 57.6 °F 55.4 °F 92% 30.05 in 10.0 mi WSW 5.8 mph - N/A   Clear
6:35 AM 58.1 °F 55.4 °F 91% 30.04 in 10.0 mi SSW 3.5 mph - N/A   Clear
6:55 AM 59.9 °F 57.2 °F 91% 30.04 in 10.0 mi SSW 3.5 mph - N/A   Clear
7:15 AM 60.6 °F 57.2 °F 88% 30.05 in 10.0 mi Calm Calm - N/A   Clear
7:35 AM 61.5 °F 58.3 °F 89% 30.06 in 10.0 mi Calm Calm - N/A   Clear
7:55 AM 62.8 °F 59.0 °F 87% 30.08 in 10.0 mi WSW 5.8 mph - N/A   Scattered Clouds
8:15 AM 63.1 °F 58.1 °F 84% 30.07 in 10.0 mi SSW 9.2 mph - N/A   Mostly Cloudy
8:35 AM 63.5 °F 58.1 °F 83% 30.02 in 10.0 mi SE 9.2 mph - N/A   Scattered Clouds
8:55 AM 65.1 °F 57.7 °F 77% 30.03 in 10.0 mi SSE 10.4 mph - N/A   Clear
9:15 AM 66.9 °F 57.6 °F 72% 30.03 in 10.0 mi East 9.2 mph - N/A   Scattered Clouds
9:35 AM 68.0 °F 58.6 °F 72% 30.04 in 10.0 mi East 9.2 mph - N/A   Scattered Clouds
9:55 AM 68.2 °F 58.8 °F 72% 30.03 in 10.0 mi East 9.2 mph - N/A   Clear
10:15 AM 68.0 °F 59.4 °F 74% 30.07 in 10.0 mi Calm Calm - N/A   Scattered Clouds
10:35 AM 68.2 °F 59.5 °F 74% 30.06 in 10.0 mi Calm Calm - N/A Rain Light Rain
10:55 AM 71.1 °F 61.5 °F 72% 30.04 in 10.0 mi East 5.8 mph - N/A   Mostly Cloudy
11:15 AM 69.4 °F 58.5 °F 68% 30.05 in 10.0 mi NE 8.1 mph - N/A Rain Light Rain
11:35 AM 68.4 °F 59.4 °F 73% 30.08 in 10.0 mi SE 5.8 mph - N/A Rain Light Rain
11:55 AM 68.9 °F 59.0 °F 71% 30.06 in 10.0 mi East 12.7 mph - N/A   Mostly Cloudy
12:15 PM 67.6 °F 59.7 °F 76% 30.11 in 10.0 mi Calm Calm - N/A Rain Rain
12:35 PM 66.6 °F 60.8 °F 82% 30.07 in 7.0 mi East 8.1 mph - 0.02 in Rain Rain
12:55 PM 68.4 °F 61.5 °F 79% 30.04 in 10.0 mi East 12.7 mph - 0.02 in   Mostly Cloudy
1:15 PM 68.4 °F 61.2 °F 78% 30.10 in 10.0 mi North 13.8 mph 17.3 mph N/A   Overcast
1:35 PM 66.7 °F 60.6 °F 81% 30.10 in 10.0 mi NNE 6.9 mph - 0.02 in Rain , Thunderstorm Light Thunderstorms and Rain
1:55 PM 65.8 °F 55.8 °F 70% 30.08 in 10.0 mi NE 15.0 mph - 0.03 in Rain Light Rain
2:15 PM 68.0 °F 54.9 °F 63% 30.09 in 10.0 mi NE 10.4 mph - N/A   Mostly Cloudy
2:35 PM 67.6 °F 54.5 °F 63% 30.10 in 10.0 mi NNE 8.1 mph - N/A   Overcast
2:55 PM 66.4 °F 52.2 °F 60% 30.10 in 10.0 mi NNE 12.7 mph 16.1 mph N/A   Mostly Cloudy
3:15 PM 68.9 °F 53.8 °F 58% 30.08 in 10.0 mi ENE 15.0 mph 21.9 mph N/A Thunderstorm Thunderstorm
3:35 PM 70.7 °F 51.1 °F 50% 30.06 in 10.0 mi East 17.3 mph 25.3 mph N/A   Clear
3:55 PM 70.7 °F 50.2 °F 48% 30.06 in 10.0 mi East 15.0 mph 26.5 mph N/A   Clear
4:15 PM 70.2 °F 49.8 °F 48% 30.03 in 10.0 mi ESE 17.3 mph 20.7 mph N/A   Clear
4:35 PM 68.9 °F 48.7 °F 49% 30.01 in 10.0 mi ESE 16.1 mph 23.0 mph N/A   Clear
4:55 PM 68.0 °F 48.4 °F 49% 30.02 in 10.0 mi SE 16.1 mph - N/A Thunderstorm Clear
5:15 PM 64.0 °F 53.4 °F 68% 30.08 in 10.0 mi SW 12.7 mph 17.3 mph N/A Rain , Thunderstorm Light Thunderstorms and Rain
5:35 PM 63.1 °F 52.5 °F 68% 30.01 in 10.0 mi South 19.6 mph 25.3 mph N/A Rain , Thunderstorm Light Thunderstorms and Rain
5:55 PM 64.2 °F 50.2 °F 60% 29.95 in 10.0 mi South 24.2 mph 36.8 mph N/A   Scattered Clouds
6:15 PM 64.4 °F 50.2 °F 60% 29.96 in 10.0 mi SSE 12.7 mph - N/A   Clear
6:35 PM 66.9 °F 48.0 °F 51% 29.96 in 10.0 mi SE 8.1 mph 16.1 mph N/A   Clear
6:55 PM 66.2 °F 50.7 °F 57% 29.98 in 10.0 mi SSE 8.1 mph - N/A   Clear
7:15 PM 65.3 °F 52.0 °F 62% 29.99 in 10.0 mi SE 9.2 mph - N/A   Clear
7:35 PM 65.5 °F 49.1 °F 55% 29.99 in 10.0 mi SSE 12.7 mph 18.4 mph N/A   Clear
7:55 PM 64.4 °F 51.1 °F 62% 30.00 in 10.0 mi SSE 10.4 mph - N/A   Clear
8:15 PM 64.4 °F 51.4 °F 63% 30.01 in 10.0 mi South 12.7 mph 20.7 mph N/A   Clear
8:35 PM 64.6 °F 52.0 °F 64% 30.01 in 10.0 mi South 9.2 mph - N/A   Clear
8:55 PM 64.0 °F 52.0 °F 65% 30.02 in 10.0 mi Calm Calm - N/A   Clear
9:15 PM 63.9 °F 51.6 °F 64% 30.04 in 10.0 mi West 5.8 mph - N/A   Clear
9:35 PM 63.1 °F 51.8 °F 66% 30.05 in 10.0 mi West 4.6 mph - N/A   Clear
9:55 PM 62.6 °F 51.8 °F 68% 30.05 in 10.0 mi West 3.5 mph - N/A   Clear
10:15 PM 61.2 °F 51.8 °F 71% 30.05 in 10.0 mi NW 3.5 mph - N/A   Clear
10:35 PM 59.9 °F 51.6 °F 74% 30.06 in 10.0 mi WNW 4.6 mph - N/A   Clear
10:55 PM 57.2 °F 51.3 °F 81% 30.08 in 10.0 mi Calm Calm - N/A   Clear
11:15 PM 55.9 °F 51.3 °F 84% 30.08 in 10.0 mi Calm Calm - N/A   Clear
11:35 PM 53.8 °F 50.2 °F 88% 30.07 in 10.0 mi Calm Calm - N/A   Clear
11:55 PM 53.1 °F 50.4 °F 91% 30.06 in 10.0 mi South 3.5 mph - N/A   Clear